Regional Weather Roundup
Issued by NWS Wakefield, VA

Home | Current Version | Previous Version | Text Only | Print | Product List | Glossary On
Versions: 1 2 3 4 5 6 7 8 9 10 11 12 13 14 15 16 17 18 19 20 21 22 23 24 25 26 27 28 29 30 31 32 33 34 35 36 37 38 39 40 41 42 43 44 45 46 47 48 49 50
000
ASUS41 KAKQ 280015
RWRAKQ

REGIONAL WEATHER ROUNDUP
NATIONAL WEATHER SERVICE WAKEFIELD VA
800 PM EDT WED MAY 27 2015

Note: "fair" indicates few or no clouds below 12,000 feet with no
significant weather and/or obstructions to visibility. * = Denotes
station may not report precipitation (e.g., rain,snow,etc.),
thunder or fog.

VAZ042-051-052>054-056-280100-
NORTHERN VIRGINIA

CITY           SKY/WX    TMP DP  RH WIND       PRES   REMARKS
WASH NATIONAL  MOCLDY    82  69  64 SE8       30.11F
DULLES         MOCLDY    75  72  90 CALM      30.12S
FORT BELVOIR   MOCLDY    78  70  76 E2        30.11S
QUANTICO       MOCLDY    81  70  69 CALM      30.11S
FREDERICKSBRG* MOCLDY    86  67  53 S3        30.10S
STAFFORD*      MOCLDY    82  63  52 CALM      30.15S
WARRENTON      MOCLDY    80  71  74 N3        30.12S
CULPEPER*      MOCLDY    81  66  60 CALM      30.12S
MANASSAS*      CLEAR     81  70  69 CALM      30.11F
LEESBURG*      MOCLDY    79  72  78 SW10      30.13S
WINCHESTER     MOCLDY    81  63  54 CALM      30.12S
FRONT ROYAL*   FAIR      77  68  73 CALM      30.11S
LURAY*         FAIR      81  70  69 CALM      30.13S
$$

VAZ048-049-060>072-079>083-280100-
CENTRAL AND SOUTH CENTRAL VIRGINIA

CITY           SKY/WX    TMP DP  RH WIND       PRES   REMARKS
RICHMOND       MOCLDY    85  65  51 SW8       30.12F
CHESTERFIELD*  NOT AVBL
PETERSBURG*    PTCLDY    80  73  78 SW3       30.14S
HANOVER        MOCLDY    82  67  60 SW5       30.13F
TAPPAHANNOCK*  MOCLDY    82  64  54 CALM      30.13S
QUINTON*       FAIR      82  68  62 CALM      30.12S
CHARLOTTSVILLE MOCLDY    80  64  58 SW7       30.13S
GORDONSVILLE*  FAIR      77  67  70 CALM      30.12S
ORANGE*        MOCLDY    81  68  65 CALM      30.14S
LOUISA*        PTCLDY    79  66  65 CALM      30.12S
BUMPASS*       FAIR      81  66  61 CALM      30.12S
FARMVILLE*     CLEAR     79  66  63 SW5       30.13S
CREWE*         FAIR      80  66  61 CALM      30.15S
FORT PICKETT*  FAIR      79  66  64 SW6       30.15S
CHASE CITY*    FAIR      83  69  61 CALM      30.16R
CLARKSVILLE*   FAIR      79  66  65 S3        30.15S
SOUTH HILL*    CLEAR     79  66  65 CALM      30.21R
LAWRENCEVILLE* FAIR      81  66  61 CALM      30.15S
EMPORIA*       CLOUDY    73  68  83 SE7       30.18R THUNDER
$$

VAZ088>098-280100-
SOUTHEAST VIRGINIA

CITY           SKY/WX    TMP DP  RH WIND       PRES   REMARKS
NORFOLK        CLEAR     78  66  66 S14       30.16S
VIRGINIA BEACH PTCLDY    79  66  64 S13G18    30.17R
NORFOLK NAVAL  PTCLDY    84  67  56 S8        30.17R
WEST POINT*    MOCLDY    85  67  54 S7        30.15R
SALUDA*        FAIR      79  71  76 S9G21     30.13S
NEWPORT NEWS   CLEAR     84  68  58 S14G23    30.15R
LANGLEY AFB    CLEAR     80  69  69 S18       30.14S
FORT EUSTIS    CLEAR     80  68  67 S8G17     30.14F
WILLIAMSBURG*  PTCLDY    84  72  65 S9G16     30.16R
HR EXEC AP*    FAIR      79  66  65 S12       30.18S
FRANKLIN*      PTCLDY    77  68  73 S15       30.17R
WAKEFIELD      CLOUDY    77  67  71 NW6       30.16R
$$

VAZ020-022-025-037-045-280100-
WEST CENTRAL AND SOUTHWEST VIRGINIA

CITY           SKY/WX    TMP DP  RH WIND       PRES   REMARKS
STAUNTON*      MOCLDY    81  64  56 S7        30.16S
WAYNESBORO*    FAIR      77  64  62 S8        30.16S
HOT SPRINGS VA PTCLDY    68  61  78 S8        30.27S
LYNCHBURG      MOCLDY    76  64  66 SW3       30.17S
DANVILLE       CLEAR     79  66  64 S3        30.16S
SOUTH BOSTON*  FAIR      79  63  57 MISG      30.15S
MARTINSVILLE   PTCLDY    73  67  81 CALM      30.20R
ROANOKE        PTCLDY    80  63  55 S8        30.18R
BLACKSBURG     PTCLDY    76  63  64 S5        30.25R
DUBLIN*        MOCLDY    76  64  67 SW7       30.24R
MARION*        PTCLDY    75  59  57 SW3       30.26S
HILLSVILLE*    MOCLDY    71  64  79 S5        30.26R
RICHLANDS*     FAIR      74  58  57 CALM      30.24S
WISE*          PTCLDY    72  54  53 W5        30.26S
ABINGDON*      PTCLDY    78  59  52 N5        30.22R
$$

MDZ021>025-VAZ099-100-280100-
SOUTHERN MARYLAND AND THE DELMARVA PENINSULA

CITY           SKY/WX    TMP DP  RH WIND       PRES   REMARKS
PATUXENT RIVER MOCLDY    76  69  79 VRB3      30.13R THUNDER
BAY BRIDGE APT NOT AVBL
LEONARDTOWN    NOT AVBL
DOVER          PTCLDY    79  72  78 S10       30.11R
GEORGETOWN     CLEAR     75  66  73 S14G20    30.16R
EASTON         NOT AVBL
CAMBRIDGE      NOT AVBL
SALISBURY      CLEAR     73  65  75 S9        30.15S
OCEAN CITY     CLEAR     70  63  78 SW14G24   30.18S
WALLOPS ISLAND CLEAR     69  65  86 S20G28    30.18S
ACCOMACK*      CLEAR     72  68  88 S13G24    30.17S
$$

NCZ012>017-030>032-280100-
NORTH CENTRAL AND EASTERN NORTH CAROLINA

CITY           SKY/WX    TMP DP  RH WIND       PRES   REMARKS
ROANOKE RAPIDS RAIN      73  72  94 S7G17     30.17R
RALEIGH        LGT RAIN  73  69  87 CALM      30.20R
ELIZABETH CITY CLEAR     75  65  70 S14       30.20S
AHOSKIE*       PTCLDY    76  68  75 S8        30.18R
EDENTON*       CLEAR     76  67  75 S15       30.20R
CURRITUCK*     CLEAR     76  63  64 S6        30.20S
KILL DEVIL HLS CLEAR     74  63  69 S9G16     30.21R
MANTEO         CLEAR     74  63  69 S22       30.22S
CAPE HATTERAS  CLEAR     73  60  63 S12       30.24S
TARBORO*       CLOUDY    79  69  70 S7        30.19R
GOLDSBORO      LGT RAIN  77  69  76 S3        30.18R
WASHINGTON     PTCLDY    76  66  72 S7        30.21R
GREENVILLE     PTCLDY    77  68  73 S13G18    30.21R
NEW BERN       MOCLDY    76  65  68 S8        30.23S
WILMINGTON     PTCLDY    75  67  76 S8        30.22R
$$

VAZ048-280100-
ELSEWHERE

CITY           SKY/WX    TMP DP  RH WIND       PRES   REMARKS
HARRISBURG PA  MOCLDY    75  67  76 SE3       30.10S
BALTIMORE      MOCLDY    77  67  71 CALM      30.11S
ANNAPOLIS      MOCLDY    75  68  78 SE9       30.12F
ANDREWS AFB    MOCLDY    77  68  73 E6        30.12S
PHILADELPHIA   CLOUDY    75  69  81 S7        30.13R
HENDERSON NC   CLOUDY    78  64  63 S9        30.18R
GREENSBORO     MOCLDY    79  64  60 S10       30.17S
ROCKY MOUNT    LGT RAIN  71  68  90 S9        30.19R
$$

VAZ100-280100-
MARINE

STATION/POSITION TIME  TEMP    WIND        PRES    WAVE   SWELL
                       AIR SEA DIR/SP/G            HT/PER HT/PER
                 (UTC) (F)     (DEG/KT/KT) (MB)    (FT/S) (FT/S)
BRANDYWINE LGT   2300   67 65  180/ 21/ 23 1020.2F
CAPE MAY NJ      2300   68 71  160/ 16/ 23 1020.3F
LEWES DE         2300   77 65  180/ 12/ 20 1020.4F
15NM E FENWICK I 2350   66 62              1021.5F   4/ 6
OCEAN-CITY-INLET 2300   66 69  220/ 11/ 14 1021.8F
WACHAPREAGUE VA  2300   73 78  200/ 17/ 24 1021.6S
THOMAS POINT MD  0000   73 68  160/ 17/ 18 1020.0F
GOOSES REEF MD   2300   72 69  180/ 14/ 19 1021.1R   1/ 2
COVE POINT MD    2300   72     280/  9/ 17 1020.8R
SOLOMONS ISLAND  2300      75                N/A
BISHOPS HEAD MD  2300   75 78  160/ 17/ 20 1020.0F
PINEY POINT MD   2300          170/ 12/ 14   N/A
CAMBRIDGE MD     2300   78 71  170/ 10/ 16 1020.2R
LEWISETTA VA     2300   79 76              1019.7R
RAPPAHANNOCK LGT 2300          140/ 15/ 17 1021.4R
STINGRAY PT      2300   74 73  180/ 16/ 19 1020.7F   2/ 3
YORK RVR RNG VA  2300   80     190/ 17/ 19 1019.9R
YORKTOWN VA      2300   82 72  180/  8/ 14 1020.1R
JAMESTOWN VA     2300   82 76  190/ 10/ 12 1019.2S
DOMINION TERM VA 2300   80     180/ 17/ 19 1020.7S
KIPTOPEKE VA     2300      80  170/ 20/ 24   N/A
CHES BAY BRIDGE  2300   79 69  170/ 17/ 21 1020.7S
CAPE HENRY VA    2300   71     140/ 11/ 13 1020.2S
CHESAPEAKE LGHT  2300   69     170/ 27/ 28 1021.7F
WILLOUBY STN VA  2300   81     180/ 18/ 24 1021.5S
CAPE HENRY BUOY  2328      64                N/A     4/ 5
1ST LANDING BUOY 2300      72              1021.0S
CAPE CHARLES BUO 2326      67                N/A     4/ 5   2/13
OFFSHORE WE BUOY 2311      65                N/A     4/ 4   2/13
64NM E OF VA BCH 2350   67 63  180/ 10/ 12 1023.0R   3/ 7   2/ 7
DUCK PIER NC     2300   74 58  170/ 16/ 20 1021.7F
44100 DUCK FRF   2324      64                N/A     2/ 7
44056 DUCK FRF   2311      62                N/A     2/ 6
OREGON INLET NC  2300   75 78  170/ 14/ 17 1023.6S
HATTERAS NC      2300   75 76  170/ 12/ 15 1023.5R
DIAMOND SHLS NC  2350   74 77  160/ 16/ 19 1023.7S   3/ 7   2/ 7
CAPE LOOKOUT NC  0000   74     170/ 14/ 15 1023.5F
$$


USA.gov is the U.S. government's official web portal to all federal, state and local government web resources and services.